This is the latest recevied weather packets stored in our database for station/object KD8TSA. If no packets are shown the sender has not sent any weather packets the latest 10 day(s).
| Time | Temp. | Humidity | Pressure | Rain* | Wind** | Luminosity | Snow |
|---|---|---|---|---|---|---|---|
| 1778198954 | 12.78° C | 54% | 1013 hPa | 0 mm | - | 17 W/m² | - |
| 1778198649 | 12.78° C | 52% | 1013.3 hPa | 0 mm | - | 21 W/m² | - |
| 1778198347 | 12.78° C | 50% | 1012.8 hPa | 0 mm | - | 23 W/m² | - |
| 1778198044 | 12.78° C | 50% | 1013 hPa | 0 mm | - | 27 W/m² | - |
| 1778197740 | 12.78° C | 51% | 1012.8 hPa | 0 mm | - | 31 W/m² | - |
| 1778197437 | 13.33° C | 51% | 1012.8 hPa | 0 mm | - | 34 W/m² | - |
| 1778197134 | 13.33° C | 50% | 1012.7 hPa | 0 mm | - | 36 W/m² | - |
| 1778196831 | 13.89° C | 48% | 1012.9 hPa | 0 mm | - | 39 W/m² | - |
| 1778196529 | 14.44° C | 48% | 1012.7 hPa | 0 mm | - | 56 W/m² | - |
| 1778196225 | 14.44° C | 47% | 1012.8 hPa | 0 mm | - | 87 W/m² | - |
| 1778195924 | 14.44° C | 49% | 1012.8 hPa | 0 mm | - | 98 W/m² | - |
| 1778195619 | 13.89° C | 49% | 1012.9 hPa | 0 mm | - | 109 W/m² | - |
| 1778195315 | 13.89° C | 49% | 1012.9 hPa | 0 mm | - | 48 W/m² | - |
| 1778195008 | 15° C | 47% | 1012.8 hPa | 0 mm | - | 79 W/m² | - |
| 1778194708 | 15° C | 46% | 1012.9 hPa | 0 mm | - | 178 W/m² | - |
| 1778194404 | 14.44° C | 48% | 1012.9 hPa | 0 mm | - | 193 W/m² | - |
| 1778194100 | 14.44° C | 48% | 1012.9 hPa | 0 mm | - | 193 W/m² | - |
| 1778193797 | 14.44° C | 49% | 1012.9 hPa | 0 mm | - | 203 W/m² | - |
| 1778193493 | 15° C | 46% | 1012.8 hPa | 0 mm | - | 226 W/m² | - |
| 1778193189 | 15° C | 48% | 1012.8 hPa | 0 mm | - | 241 W/m² | - |
| 1778192887 | 15° C | 49% | 1013.1 hPa | 0 mm | - | 252 W/m² | - |
| 1778192583 | 15° C | 47% | 1013.2 hPa | 0 mm | - | 284 W/m² | - |
| 1778192280 | 15° C | 49% | 1013.1 hPa | 0 mm | - | 294 W/m² | - |
| 1778191976 | 15° C | 49% | 1012.8 hPa | 0 mm | - | 316 W/m² | - |
| 1778191672 | 15° C | 51% | 1012.9 hPa | 0 mm | - | 321 W/m² | - |
* Rain latest hour (hover to see other rain measurements)
** Current wind speed in m/s (hover to see current wind gust speed)